www.srh.weather.gov   
NOAA logo - Click to go to the NOAA homepage   NWS logo
Other Public Products
Enter Your "City, ST" or zip code   
Current Version              Previous Version:    01  02  03  04  05  06  07  08  09  10  11  12  13  14  15  16  17  18  19  20  21  22  23  24  25  26  27  28  29  30  
   31  32  33  34  35  36  37  38  39  40  41  42  43  44  45  46  47  48  49  50  51  52  53  54  55  56  57  58  59  60  
[Printable]
605
FPUS83 KFGF 201931
OPUFGF
PRAIRIE TO PINES WEATHER ROUNDUP
NATIONAL WEATHER SERVICE EASTERN NORTH DAKOTA/GRAND FORKS ND
100 PM CST SAT DEC 20 2014

 **SATELLITE DATA USED TO AUGMENT SKY COVER AT AUTOMATED STATIONS**
 *****  WEATHER ACROSS EASTERN NORTH DAKOTA  *****

CITY           SKY/WX    TMP DP  RH WIND       PRES   REMARKS
GRAND FORKS    FOG       28  27  96 S14       29.97F VSB 1   WCI  17
GRAND FORKS AF CLOUDY    27  27 100 SW6       29.97F FOG     WCI  20
GRAND CITY NWS   N/A     28 N/A N/A S13         N/A  WCI  18
BUXTON           N/A     28  28  99 S8          N/A  WCI  20
DEVILS LAKE    CLOUDY    25  18  74 S6        29.87F VSB 3/4 WCI  18
FARGO          CLOUDY    32  28  85 S13       29.99F FOG     WCI  22
WAHPETON ARPT  CLOUDY    30  28  93 S12       30.01F WCI  21
$$

 *****  WEATHER ACROSS CENTRAL AND WESTERN NORTH DAKOTA  *****

CITY           SKY/WX    TMP DP  RH WIND       PRES   REMARKS
JAMESTOWN      CLOUDY    28  25  88 S12       29.91F FOG     WCI  18
BISMARCK       CLOUDY    24  23  96 SE5       29.87F WCI  18
MINOT          CLOUDY    23  20  88 SE3       29.82F FOG
MINOT AFB      CLOUDY    23  23 100 SE5       29.82F WCI  17
GARRISON         N/A     29  25  85 SW6       29.84S WCI  23
WILLISTON      SUNNY     32  29  88 S8        29.80F WCI  25
DICKINSON      SUNNY     45  31  58 W14       29.81F
HETTINGER      SUNNY     44  30  57 W14       29.86F
$$

 *****  OTHER OBSERVATIONS NORTHEAST NORTH DAKOTA  *****

CITY           SKY/WX    TMP DP  RH WIND       PRES   REMARKS
WALHALLA         N/A     27  27 100 S7        29.94F WCI  19
LANGDON        FOG       23  23 100 S9        29.89F VSB<1/4 WCI  13
CAVALIER       CLOUDY    27  25  93 S10       29.95S FOG     WCI  17
GRAFTON        NOT AVBL
CANDO          FOG       25  25 100 S6        29.88F VSB 1/4 WCI  18
FORT TOTTEN      N/A     23  22  95 S5        29.95  WCI  17
ROLLA          FOG       23  23 100 S10       29.85F VSB<1/4 WCI  12
RUGBY          FOG       25  25 100 SE7       29.85F VSB 1/4 WCI  17
 ***** THE ABOVE OBSERVATIONS ARE NON NWS ARE NOT QUALITY
        CONTROLLED AND MAY MIS-REPORT RAIN FOR SNOW...
$$

 *****  OTHER OBSERVATIONS SOUTHEAST NORTH DAKOTA *****

CITY           SKY/WX    TMP DP  RH WIND       PRES   REMARKS
COOPERSTOWN    NOT AVBL
VALLEY CITY    FOG       27  27 100 MISG      29.92F VSB 3/4
OAKES            N/A     27  27 100 S12G18    29.96S FOG     WCI  16
GWINNER        CLOUDY    30  30 100 MISG      29.96F
SHEYENNE NWR     N/A     29  27  94 S7        29.95  WCI  22
BUFFALO        NOT AVBL
WYNDMERE         N/A     30  28  93 S7          N/A  WCI  23
 ***** THE ABOVE OBSERVATIONS ARE NON NWS ARE NOT QUALITY
       CONTROLLED AND MAY MIS-REPORT RAIN FOR SNOW...
$$

  *****  WEATHER ACROSS NORTHERN MINNESOTA  *****

CITY           SKY/WX    TMP DP  RH WIND       PRES   REMARKS
FLAG ISLAND    CLOUDY    28  27  93 S9        29.96F WCI  20
WARROAD        CLOUDY    28  25  86 S8        29.97F WCI  20
ROSEAU         CLOUDY    30  25  80 S13       29.96F HAZE    WCI  20
HALLOCK        CLOUDY    28  27  93 CALM      29.96S FOG
THF RVR FALLS  CLOUDY    28  28 100 S14       29.97F WCI  17
HALSTAD          N/A     31  28  91 SW14        N/A  WCI  20
FOSSTON        CLOUDY    27  27 100 S10       29.99F FOG     WCI  17
BAUDETTE       CLOUDY    31  28  89 S9        29.98F WCI  23
WASKISH        CLOUDY    30  28  93 CALM      30.00S FOG
CROOKSTON      CLOUDY    28  28 100 SW14      29.99F FOG     WCI  17
$$
  *****  WEATHER ACROSS CENTRAL AND WEST MINNESOTA  *****

CITY           SKY/WX    TMP DP  RH WIND       PRES   REMARKS
BEMIDJI        LGT SNOW  29  28  96 S5        29.99F WCI  24
PARK RAPIDS    CLOUDY    30  28  92 S10       29.99F FOG     WCI  21
WADENA         CLOUDY    28  27  93 S9        30.00F FOG     WCI  20
DETROIT LAKES  CLOUDY    30  30 100 S12       30.00S FOG     WCI  21
MOORHEAD       CLOUDY    30  30 100 S12G18    30.00F FOG     WCI  21
FERGUS FALLS   CLOUDY    30  28  93 S12       30.03F FOG     WCI  21
ELBOW LAKE     CLOUDY    30  28  93 S14       30.01S FOG     WCI  20
MORRIS MN      SUNNY     32  28  86 S13       30.01F FOG     WCI  22
STAPLES        CLOUDY    28  27  93 S10       30.03F FOG     WCI  19
WHEATON        CLOUDY    28  27  93 S9        30.03F FOG     WCI  20
$$
  *****  WEATHER ELSEWHERE ACROSS MINNESOTA  *****

CITY           SKY/WX    TMP DP  RH WIND       PRES   REMARKS
DULUTH         CLOUDY    29  25  85 S10       30.07F FOG     WCI  20
INTRNTL FALLS  CLOUDY    29  27  92 S5        30.01F FOG     WCI  24
ELY            CLOUDY    28  27  93 S9        30.05S WCI  20
CLOQUET        CLOUDY    30  27  86 S5        30.07F FOG
BRAINERD       CLOUDY    29  26  89 S16       30.05F FOG     WCI  17
HIBBING        CLOUDY    30  26  85 S8        30.04F WCI  22
ALEXANDRIA     CLOUDY    30  28  92 S13       30.03F FOG     WCI  20
SAINT CLOUD    CLOUDY    32  26  78 S10       30.08F WCI  24
MINNEAPOLIS    CLOUDY    32  26  78 S10       30.13F WCI  24
$$

  *****  WEATHER ACROSS SOUTH DAKOTA  *****

CITY           SKY/WX    TMP DP  RH WIND       PRES   REMARKS
SIOUX FALLS    CLOUDY    32  30  92 S9        30.03F WCI  24
BROOKINGS      NOT AVBL
WATERTOWN      CLOUDY    30  29  96 S13       29.97F FOG     WCI  20
HURON          CLOUDY    27  26  96 S10       29.99F FOG     WCI  17
SISSETON         N/A     31  28  89 SW13      29.99F WCI  21
ABERDEEN       CLOUDY    27  25  92 S13       29.98F FOG     WCI  16
MITCHELL       CLOUDY    31  29  92 S9        30.01F FOG     WCI  23
PIERRE         CLOUDY    26  22  84 SE6       29.92F WCI  19
MOBRIDGE       CLOUDY    29  26  89 SE10      29.87F WCI  20
RAPID CITY     PTSUNNY   49  28  44 N13       29.90F
$$

  *****  SOME WEATHER IN NEARBY STATES *****

CITY           SKY/WX    TMP DP  RH WIND       PRES   REMARKS
GLASGOW MT     MOSUNNY   43  25  49 W17       29.79F
GREAT FALLS MT CLOUDY    40  22  48 SW15G23   29.81F
CHEYENNE WY    PTSUNNY   45  19  35 W22G32    29.99F
SCOTTSBLUFF NE MOSUNNY   41  29  62 W8        29.96F
OMAHA NE       CLOUDY    34  32  92 S10       30.09F FOG
DES MOINES IA  CLOUDY    35  32  88 SE8       30.12F FOG
DAVENPORT IA   CLOUDY    33  25  72 SE8       30.21F
CHICAGO IL     CLOUDY    32  23  69 W8        30.24F WCI  25
EAU CLAIRE WI  CLOUDY    32  25  75 S7        30.16F
LA CROSSE WI   CLOUDY    33  26  75 S5        30.19F
$$

  *****  SOME NATIONAL WEATHER *****

CITY           SKY/WX    TMP DP  RH WIND       PRES   REMARKS
LA GUARDIA NY  CLOUDY    32  20  61 CALM      30.26S
RALEIGH NC     CLOUDY    37  32  82 NE5       30.24F
ATLANTA GA     CLOUDY    50  45  83 N7        30.15F
NEW ORLEANS LA CLOUDY    53  48  83 N14       30.11F
OKLAHOMA CITY  CLOUDY    45  37  76 S12       30.16F
ALBUQUERQUE NM MOSUNNY   39  25  57 NW5       30.15F
SALT LAKE CITY LGT RAIN  41  35  79 W12       30.10F
LOS ANGELES CA CLOUDY    61  50  67 NE3       30.19F
BOISE ID       CLOUDY    43  38  82 SE13      29.98F
SEATTLE WA     LGT RAIN  46  43  87 E9        29.61F FOG
$$

*** WEATHER ACROSS MANITOBA...SASKATCHEWAN AND ONTARIO ***
                ***ONTARIO***

CITY           SKY/WX    TMP DP  RH WIND       PRES   REMARKS
GERALDTON      CLOUDY    25  23  93 S7        30.14F WCI  17
THUNDER BAY    LGT SNOW  32  30  93 E3        30.14
SIOUX LOOKOUT  FLURRIES  27  23  86 S7        30.02F WCI  19
TORONTO        MOSUNNY   32  16  51 N3        30.25S
BIG TROUT LK   CLOUDY    21  19  93 SE5       30.07F WCI  15
PICKLE LAKE    FLURRIES  23  19  86 S6        30.04F WCI  16
DRYDEN         CLOUDY    27  27 100 S7        30.00S FOG     WCI  19
KENORA         FRZ DRZL  27  27 100 S6        29.96F VSB 1   WCI  20
$$
                *** MANITOBA***

CITY           SKY/WX    TMP DP  RH WIND       PRES   REMARKS
BRANDON        CLOUDY    25  23  93 S9        29.88F WCI  15
DAUPHIN        CLOUDY    25  21  86 SE5       29.87F WCI  19
ISLAND LAKE    FLURRIES  21  19  93 SE6       29.98F WCI  14
PILOT MOUND      N/A     23  21  93 S1          N/A
THE PAS        LGT SNOW  18  18 100 S13G21    29.87F FOG     WCI   4
THOMPSON       FLURRIES  16  14  93 SW8       29.93F WCI   5
WINNIPEG       CLOUDY    27  25  93 SW7       29.94F WCI  19
LYNN LAKE      CLOUDY    16  14  93 S8        29.81F WCI   5
CHURCHILL      FLURRIES  14  12  92 S9        29.96  WCI   2
GILLAM         FLURRIES  18  16  93 S7        30.00F WCI   8
$$
                ***SASKATCHEWAN***

CITY           SKY/WX    TMP DP  RH WIND       PRES   REMARKS
ESTEVAN        CLOUDY   N/A N/A N/A SE6         N/A  FOG
KINDERSLEY     MOSUNNY   21  19  93 SW6       29.69F WCI  14
LLOYDMINSTER   PTSUNNY   19  18  93 CALM      29.66F
PRINCE ALBERT  LGT SNOW  19  18  93 E8        29.73F FOG     WCI   9
REGINA         FLURRIES  27  27 100 SE14      29.71  WCI  15



National Weather Service
Disclaimer
Last Modified: August 31, 2005
Privacy Policy